RH
88 99 93 89 98 100 100 99 96 98 95 96 93 93 91 89 87 93 91 98 100 100 98 97 99 100 98
87 93 96 98 96 92 100 85 98 98 100 98 98 84 88 87 85 85 87 92 97 100 99 95 92 91 84
97 99 89 82 85 95 98 98 100 100 100 100 100 99 99 100 99 98 96 98 98 91 92 96 97 88 87
98 90 90 93 94 100 100 100 100 100 100 100 100 100 100 100 99 86 86 88 80 56 44 55 52 42 38
88 82 93 99 100 100 100 100 99 100 100 100 100 100 98 86 78 78 74 62 49 43 40 39 37 36 35
94 100 100 100 100 99 99 100 100 100 100 99 92 75 68 66 70 66 59 49 46 45 45 42 40 38 35
99 100 97 92 74 63 66 57 57 65 65 69 66 62 57 53 50 50 51 52 51 51 49 46 41 30 20
73 61 51 47 44 43 42 41 42 42 43 44 50 56 53 52 55 58 59 59 58 56 48 34 24 20 20
41 40 40 39 38 39 44 46 45 42 37 36 39 45 47 48 56 61 66 64 52 40 32 26 25 25 28
43 43 41 39 38 38 41 41 30 23 36 30 26 26 28 42 56 64 53 46 45 36 33 35 34 32 32
45 46 43 38 36 37 42 36 24 18 20 20 20 20 21 24 25 27 31 39 36 39 40 39 36 35 33
48 49 42 36 36 43 40 26 18 18 20 21 23 24 26 29 32 38 41 40 42 42 41 40 41 40 40
53 51 40 37 43 44 26 18 19 21 23 25 28 29 33 38 41 42 40 45 45 43 42 46 44 41 40
78 49 39 41 49 31 19 19 22 25 28 29 31 35 40 42 45 47 52 52 48 44 43 45 51 50 47
61 43 41 50 41 24 21 25 27 30 34 36 36 41 44 46 57 68 62 57 58 56 50 43 46 50 49
51 44 50 51 30 23 26 29 32 35 38 43 46 50 51 54 58 62 66 62 60 62 60 52 44 51 51
50 47 55 44 26 26 32 35 37 39 46 49 49 53 52 57 62 72 70 76 69 66 66 68 64 60 54
Wind_Speed
9 8 9 10 7 6 9 9 10 10 10 8 10 9 8 11 12 11 13 13 15 14 5 4 2 3 2
13 13 11 9 9 11 11 10 11 8 8 11 10 10 11 12 12 12 14 14 17 4 6 8 8 9 9
11 10 10 12 14 14 11 12 11 6 8 9 11 12 12 12 12 11 10 7 6 6 5 4 7 8 11
11 11 13 14 15 11 10 10 7 8 8 8 10 11 12 10 10 7 3 4 5 5 4 3 4 5 7
12 12 11 9 9 8 6 8 7 7 7 7 8 8 8 6 5 5 5 6 5 5 7 8 10 11 13
10 9 8 7 5 4 6 7 6 7 7 6 5 4 4 5 5 7 8 8 8 10 11 13 15 16 17
6 6 4 3 3 3 3 2 0 1 3 4 5 6 7 8 9 9 10 10 12 13 15 17 18 19 17
6 6 5 5 4 3 1 1 3 4 5 6 7 8 9 10 10 11 12 12 14 15 16 18 17 17 15
7 6 5 3 2 1 3 5 7 7 8 9 8 8 9 10 12 12 11 11 15 16 16 16 16 16 14
4 2 1 1 2 3 5 7 8 8 6 7 9 8 5 7 8 9 12 13 14 15 15 15 15 16 14
3 2 2 3 4 5 7 8 9 8 9 9 8 8 7 8 10 12 13 13 13 13 14 14 15 15 14
4 4 4 5 5 6 8 9 8 7 7 8 8 8 8 9 9 9 11 12 12 11 13 14 15 14 14
6 6 6 5 6 8 9 8 8 8 8 9 9 9 9 9 9 10 10 9 11 12 13 14 15 13 11
7 7 6 7 7 8 8 8 8 8 9 9 9 9 9 8 8 8 9 8 12 14 15 12 11 14 16
7 8 7 7 8 8 7 7 8 9 9 10 11 8 6 6 6 8 9 10 13 16 17 15 11 13 14
7 7 7 8 8 8 7 7 8 9 8 8 6 6 5 5 6 7 8 11 12 12 15 18 15 12 13
8 8 8 8 8 7 7 8 9 8 7 7 4 3 2 3 3 8 10 11 11 10 12 14 17 15 13
Wind_Direction
286 293 291 287 295 282 304 301 311 316 308 300 302 295 302 311 314 304 318 317 313 305 315 314 80 152 171
272 276 281 282 276 287 286 297 297 298 269 294 280 294 288 297 297 300 304 305 305 304 299 290 254 276 274
271 271 280 283 278 280 271 269 286 266 261 260 276 285 296 297 298 301 304 310 339 339 350 305 290 298 292
258 268 283 276 266 268 265 273 261 267 262 266 272 278 290 292 297 310 301 296 323 355 11 353 326 317 307
262 257 259 264 255 253 256 261 264 257 257 261 272 281 289 298 306 309 314 324 333 325 318 316 314 311 309
234 244 248 244 232 242 249 246 252 261 262 271 273 274 288 301 304 308 315 316 311 309 309 310 310 308 308
215 218 208 191 147 117 129 116 101 294 278 277 275 280 285 291 294 297 298 298 301 303 304 306 307 306 307
157 153 138 133 126 112 89 347 325 294 298 289 279 275 279 280 284 285 289 295 298 300 303 305 306 306 308
133 129 124 119 103 7 329 317 313 303 295 293 289 286 284 277 271 278 291 296 304 305 307 308 308 308 308
147 139 113 343 314 308 310 312 311 309 300 303 299 300 294 278 273 280 291 296 302 306 306 308 309 308 309
208 232 276 295 303 310 313 313 309 298 297 304 300 300 289 285 287 288 293 298 302 301 303 308 308 309 309
247 274 295 302 306 312 315 315 313 307 304 304 305 302 298 295 291 288 294 297 299 304 310 310 311 311 307
266 285 293 295 302 309 311 312 311 310 309 308 308 307 305 302 302 297 302 291 291 305 320 321 317 311 304
268 279 280 286 300 310 311 313 311 312 309 308 310 308 303 301 298 295 303 301 300 309 315 322 317 312 311
267 274 277 290 305 309 310 309 309 313 309 307 311 310 299 291 290 296 302 303 312 321 322 325 332 316 307
270 271 276 289 298 299 299 302 307 309 303 304 307 314 300 289 291 287 300 319 331 331 326 327 331 321 312
266 262 269 285 290 289 294 299 305 299 291 298 302 307 296 328 305 315 330 338 344 347 346 348 341 341 323